TimeCST,TemperatureF,Dew PointF,Humidity,Sea Level PressureIn,VisibilityMPH,Wind Direction,Wind SpeedMPH,Gust SpeedMPH,PrecipitationIn,Events,Conditions,WindDirDegrees,DateUTC
12:15 AM,26.6,19.4,74,30.63,10.0,East,3.5,-,N/A,,Overcast,100,2013-11-24 06:15:00
12:35 AM,26.6,19.4,74,30.62,10.0,East,3.5,-,N/A,,Overcast,90,2013-11-24 06:35:00
12:55 AM,26.6,19.4,74,30.62,10.0,East,3.5,-,N/A,,Overcast,90,2013-11-24 06:55:00
1:15 AM,26.6,19.4,74,30.62,10.0,Calm,Calm,-,N/A,,Overcast,0,2013-11-24 07:15:00
1:35 AM,26.6,19.4,74,30.62,10.0,Calm,Calm,-,N/A,,Overcast,0,2013-11-24 07:35:00
1:55 AM,26.6,19.4,74,30.61,10.0,Calm,Calm,-,N/A,,Mostly Cloudy,0,2013-11-24 07:55:00
2:15 AM,26.6,19.4,74,30.61,10.0,South,4.6,-,N/A,,Scattered Clouds,170,2013-11-24 08:15:00
2:35 AM,26.6,19.4,74,30.60,10.0,South,3.5,-,N/A,,Overcast,170,2013-11-24 08:35:00
2:55 AM,26.6,19.4,74,30.59,10.0,SSE,3.5,-,N/A,,Overcast,160,2013-11-24 08:55:00
3:15 AM,26.6,19.4,74,30.59,10.0,South,5.8,-,N/A,,Overcast,170,2013-11-24 09:15:00
3:35 AM,26.6,21.2,80,30.59,7.0,SSW,9.2,-,N/A,,Overcast,210,2013-11-24 09:35:00
3:55 AM,26.6,19.4,74,30.58,9.0,South,6.9,-,N/A,,Overcast,190,2013-11-24 09:55:00
4:15 AM,26.6,19.4,74,30.57,2.5,South,8.1,-,N/A,,Overcast,190,2013-11-24 10:15:00
4:35 AM,26.6,19.4,74,30.56,9.0,SSW,5.8,-,N/A,,Mostly Cloudy,200,2013-11-24 10:35:00
4:55 AM,26.6,19.4,74,30.55,10.0,South,5.8,-,N/A,,Overcast,190,2013-11-24 10:55:00
5:15 AM,26.6,21.2,80,30.55,5.0,South,5.8,-,N/A,,Overcast,190,2013-11-24 11:15:00
5:35 AM,26.6,19.4,74,30.55,4.0,South,10.4,-,N/A,,Overcast,190,2013-11-24 11:35:00
5:55 AM,26.6,19.4,74,30.54,10.0,South,10.4,-,N/A,,Scattered Clouds,180,2013-11-24 11:55:00
6:15 AM,26.6,19.4,74,30.53,4.0,South,10.4,-,N/A,,Mostly Cloudy,170,2013-11-24 12:15:00
6:35 AM,26.6,19.4,74,30.53,3.0,South,9.2,-,N/A,,Overcast,180,2013-11-24 12:35:00
6:55 AM,26.6,19.4,74,30.52,2.0,South,8.1,-,N/A,,Overcast,170,2013-11-24 12:55:00
7:15 AM,26.6,21.2,80,30.52,5.0,SSE,9.2,-,N/A,,Mostly Cloudy,160,2013-11-24 13:15:00
7:35 AM,26.6,21.2,80,30.52,4.0,SSE,9.2,-,N/A,,Mostly Cloudy,160,2013-11-24 13:35:00
7:55 AM,26.6,21.2,80,30.51,1.0,SSE,8.1,-,N/A,,Overcast,160,2013-11-24 13:55:00
8:15 AM,26.6,21.2,80,30.50,8.0,South,9.2,-,N/A,,Mostly Cloudy,170,2013-11-24 14:15:00
8:35 AM,26.6,21.2,80,30.50,10.0,South,8.1,-,N/A,,Mostly Cloudy,170,2013-11-24 14:35:00
8:55 AM,26.6,21.2,80,30.50,5.0,South,8.1,-,N/A,,Mostly Cloudy,180,2013-11-24 14:55:00
9:15 AM,26.6,21.2,80,30.49,10.0,South,9.2,-,N/A,,Overcast,180,2013-11-24 15:15:00
9:35 AM,26.6,21.2,80,30.48,10.0,South,9.2,-,N/A,,Overcast,170,2013-11-24 15:35:00
9:55 AM,26.6,21.2,80,30.48,7.0,South,11.5,-,N/A,,Overcast,170,2013-11-24 15:55:00
10:15 AM,26.6,21.2,80,30.47,10.0,South,12.7,-,N/A,,Overcast,170,2013-11-24 16:15:00
10:35 AM,28.4,23.0,80,30.46,10.0,South,12.7,-,N/A,,Overcast,180,2013-11-24 16:35:00
10:55 AM,28.4,23.0,80,30.46,10.0,South,13.8,-,N/A,,Overcast,180,2013-11-24 16:55:00
11:15 AM,28.4,23.0,80,30.45,10.0,South,13.8,-,N/A,,Overcast,180,2013-11-24 17:15:00
11:35 AM,28.4,23.0,80,30.43,10.0,South,13.8,-,N/A,,Overcast,170,2013-11-24 17:35:00
11:55 AM,28.4,23.0,80,30.41,10.0,South,13.8,-,N/A,,Overcast,170,2013-11-24 17:55:00
12:15 PM,28.4,24.8,86,30.40,10.0,South,11.5,-,N/A,,Overcast,180,2013-11-24 18:15:00
12:35 PM,30.2,24.8,80,30.38,10.0,South,13.8,-,N/A,,Overcast,180,2013-11-24 18:35:00
12:55 PM,30.2,24.8,80,30.37,10.0,South,13.8,-,N/A,,Overcast,190,2013-11-24 18:55:00
1:15 PM,30.2,24.8,80,30.35,10.0,South,13.8,-,N/A,,Overcast,180,2013-11-24 19:15:00
1:35 PM,30.2,24.8,80,30.34,5.0,South,11.5,-,N/A,,Overcast,180,2013-11-24 19:35:00
1:55 PM,30.2,24.8,80,30.32,6.0,South,15.0,-,N/A,,Overcast,180,2013-11-24 19:55:00
2:15 PM,30.2,24.8,80,30.31,10.0,South,13.8,-,N/A,,Overcast,170,2013-11-24 20:15:00
2:35 PM,30.2,24.8,80,30.29,10.0,South,15.0,-,N/A,,Overcast,170,2013-11-24 20:35:00
2:55 PM,30.2,24.8,80,30.28,10.0,South,17.3,-,N/A,,Overcast,170,2013-11-24 20:55:00
3:15 PM,30.2,26.6,86,30.27,10.0,South,17.3,-,N/A,,Overcast,170,2013-11-24 21:15:00
3:35 PM,30.2,24.8,80,30.27,10.0,South,17.3,-,N/A,,Overcast,170,2013-11-24 21:35:00
3:55 PM,30.2,26.6,86,30.27,10.0,South,17.3,-,N/A,,Overcast,180,2013-11-24 21:55:00
4:15 PM,30.2,24.8,80,30.26,10.0,South,18.4,-,N/A,,Overcast,170,2013-11-24 22:15:00
4:35 PM,30.2,24.8,80,30.25,10.0,South,18.4,-,N/A,,Overcast,170,2013-11-24 22:35:00
4:55 PM,30.2,24.8,80,30.25,10.0,SSE,16.1,-,N/A,,Overcast,160,2013-11-24 22:55:00
5:15 PM,30.2,24.8,80,30.23,10.0,SSE,13.8,-,N/A,,Overcast,160,2013-11-24 23:15:00
5:35 PM,30.2,24.8,80,30.22,10.0,SSE,15.0,-,N/A,,Overcast,160,2013-11-24 23:35:00
5:55 PM,30.2,24.8,80,30.22,10.0,SSE,15.0,20.7,N/A,,Overcast,160,2013-11-24 23:55:00
6:15 PM,30.2,24.8,80,30.21,10.0,SSE,16.1,-,N/A,,Overcast,160,2013-11-25 00:15:00
6:35 PM,30.2,24.8,80,30.20,10.0,SSE,16.1,-,N/A,,Overcast,160,2013-11-25 00:35:00
6:55 PM,30.2,24.8,80,30.20,10.0,SSE,18.4,-,N/A,,Overcast,160,2013-11-25 00:55:00
7:15 PM,30.2,24.8,80,30.19,10.0,SSE,15.0,-,N/A,,Overcast,160,2013-11-25 01:15:00
7:35 PM,30.2,24.8,80,30.18,10.0,SSE,17.3,21.9,N/A,,Overcast,160,2013-11-25 01:35:00
7:55 PM,28.4,24.8,86,30.17,10.0,SSE,18.4,-,N/A,,Overcast,160,2013-11-25 01:55:00
8:15 PM,28.4,24.8,86,30.17,10.0,SSE,18.4,23.0,N/A,,Overcast,160,2013-11-25 02:15:00
8:35 PM,28.4,24.8,86,30.16,10.0,SSE,18.4,-,N/A,,Overcast,160,2013-11-25 02:35:00
8:55 PM,28.4,24.8,86,30.14,10.0,South,21.9,25.3,N/A,,Overcast,170,2013-11-25 02:55:00
9:15 PM,28.4,24.8,86,30.14,10.0,South,19.6,-,N/A,,Overcast,170,2013-11-25 03:15:00
9:35 PM,28.4,24.8,86,30.13,10.0,South,19.6,-,N/A,,Overcast,170,2013-11-25 03:35:00
9:55 PM,28.4,24.8,86,30.13,10.0,South,17.3,-,N/A,,Overcast,170,2013-11-25 03:55:00
10:15 PM,28.4,24.8,86,30.12,10.0,South,17.3,-,N/A,,Overcast,170,2013-11-25 04:15:00
10:35 PM,30.2,24.8,80,30.12,10.0,South,17.3,23.0,N/A,,Overcast,180,2013-11-25 04:35:00
10:55 PM,30.2,24.8,80,30.11,10.0,South,13.8,-,N/A,,Overcast,190,2013-11-25 04:55:00
11:15 PM,30.2,24.8,80,30.10,10.0,South,13.8,-,N/A,,Overcast,180,2013-11-25 05:15:00
11:35 PM,30.2,24.8,80,30.10,10.0,South,15.0,-,N/A,,Overcast,180,2013-11-25 05:35:00
11:55 PM,30.2,24.8,80,30.09,10.0,South,15.0,-,N/A,,Overcast,180,2013-11-25 05:55:00